Location: Kuffner-Sternwarte
(48.2130°N, 16.2960°E)
Time: 08:00:41
(UTC+01:00)

XW-2C - Pass Details

Date: 09 November 2024
Orbit: 359 x 368 km, 97.5° (Epoch: 04 December)

Event Time Altitude Azimuth Distance (km) Brightness Sun altitude
Exits shadow 17:56:51 11° 12° (NNE) 1,337 ? -15.7°
Drops below altitude 10° 17:57:04 10° 10° (N) 1,417 ? -15.7°
Sets 17:59:11 0° 358° (N) 2,267 ? -16.1°
